Regional Weather Roundup
Issued by NWS

Home | Current Version | Previous Version | Graphics & Text | Print | Product List | Glossary On
Versions: 1 2 3 4 5 6 7 8 9 10 11 12 13 14 15 16 17 18 19 20 21 22 23 24 25 26 27 28 29 30 31 32 33 34 35 36 37 38 39 40 41 42 43 44 45 46 47 48 49 50
000
ASUS43 KLSX 190257
RWRMO

WEATHER SUMMARY FOR MISSOURI
NATIONAL WEATHER SERVICE SPRINGFIELD MO
900 PM CST SAT NOV 18 2017

NOTE: "FAIR" INDICATES FEW OR NO CLOUDS BELOW 12,000 FEET WITH NO
       SIGNIFICANT WEATHER AND/OR OBSTRUCTIONS TO VISIBILITY.
       CURRENT SKY AND/OR WEATHER CONDITIONS ARE NOT AVAILABLE FOR
       CHILLICOTHE AND FARMINGTON.

MOZ001>031-035>038-043-044-053-054-190400-
...NORTHERN AND WESTERN MISSOURI...

CITY           SKY/WX    TMP DP  RH WIND       PRES   REMARKS
KANSAS CTY INT CLEAR     39  27  62 NW10      30.16R
LEE`S SUMMIT   CLEAR     43  28  55 NW16G25   30.16R
ST JOSEPH      CLEAR     32  27  81 NW8       30.18R WCI  25
CHILLICOTHE      N/A     39  27  62 NW9       30.13R

$$
MOZ066>068-077>081-088>096-101>105-190400-
...SOUTHWEST MISSOURI...

CITY           SKY/WX    TMP DP  RH WIND       PRES   REMARKS
SPRINGFIELD    CLEAR     41  32  70 NW9       30.12R
JOPLIN         CLEAR     40  34  79 NW8       30.19R
BRANSON        CLEAR     45  32  61 NW8G17    30.14R

$$
MOZ032>034-039>042-045>050-055>058-069>072-190400-
...CENTRAL MISSOURI...

CITY           SKY/WX    TMP DP  RH WIND       PRES   REMARKS
COLUMBIA       NOT AVBL
JEFFERSON CITY CLEAR     43  30  60 NW14G25   30.07R
ROLLA          CLEAR     39  32  76 NW12      30.04R
SEDALIA        CLEAR     42  31  64 NW12      30.12R
WARRENSBURG    PTCLDY    41  25  52 NW13G21   30.15R

$$
MOZ051-052-059>065-190400-
...EAST CENTRAL MISSOURI...

CITY           SKY/WX    TMP DP  RH WIND       PRES   REMARKS
ST LOUIS INTL  CLEAR     41  33  73 NW14G24   29.97R

$$
MOZ072>076-082>087-097>100-106>115-190400-
...SOUTH CENTRAL AND SOUTHEAST MISSOURI...

CITY           SKY/WX    TMP DP  RH WIND       PRES   REMARKS
CAPE GIRARDEAU CLEAR     44  33  65 NW15      29.98R
POPLAR BLUFF   CLEAR     45  33  63 NW12      30.01R
WEST PLAINS    CLEAR     41  32  70 W7        30.07R

$$



USA.gov is the U.S. government's official web portal to all federal, state and local government web resources and services.